Time,TemperatureF,DewpointF,PressureIn,WindDirection,WindDirectionDegrees,WindSpeedMPH,WindSpeedGustMPH,Humidity,HourlyPrecipIn,Conditions,Clouds,dailyrainin,SolarRadiationWatts/m^2,SoftwareType,DateUTC
2013-07-05 00:02:00,62.0,54.0,-100.00,WSW,256,1.0,8.0,74,0.00,,,0.32,0.000000,,2013-07-05 06:02:00,
2013-07-05 00:13:00,62.0,54.0,-100.00,WSW,256,1.0,8.0,74,0.00,,,0.32,0.000000,,2013-07-05 06:13:00,
2013-07-05 00:22:00,60.0,50.0,-100.00,SW,229,5.0,10.0,69,0.00,,,0.32,0.000000,,2013-07-05 06:22:00,
2013-07-05 00:44:00,60.0,50.0,-100.00,SW,229,5.0,10.0,69,0.00,,,0.32,0.000000,,2013-07-05 06:44:00,
2013-07-05 00:53:00,60.0,50.0,-100.00,SW,229,5.0,10.0,69,0.00,,,0.32,0.000000,,2013-07-05 06:53:00,
2013-07-05 01:02:00,60.0,50.0,-100.00,SW,229,5.0,10.0,69,0.00,,,0.32,0.000000,,2013-07-05 07:02:00,
2013-07-05 01:12:00,60.0,50.0,-100.00,SW,229,5.0,10.0,69,0.00,,,0.32,0.000000,,2013-07-05 07:12:00,
2013-07-05 01:22:00,59.0,50.0,-100.00,WSW,249,4.0,6.0,72,0.00,,,0.32,0.000000,,2013-07-05 07:22:00,
2013-07-05 01:53:00,59.0,50.0,-100.00,WSW,249,4.0,6.0,72,0.00,,,0.32,0.000000,,2013-07-05 07:53:00,
2013-07-05 02:02:00,59.0,50.0,-100.00,WSW,249,4.0,6.0,72,0.00,,,0.32,0.000000,,2013-07-05 08:02:00,
2013-07-05 02:12:00,59.0,50.0,-100.00,WSW,249,4.0,6.0,72,0.00,,,0.32,0.000000,,2013-07-05 08:12:00,
2013-07-05 02:22:00,59.0,50.0,-100.00,WSW,242,5.0,7.0,73,0.00,,,0.32,0.000000,,2013-07-05 08:22:00,
2013-07-05 02:44:00,59.0,50.0,-100.00,WSW,242,5.0,7.0,73,0.00,,,0.32,0.000000,,2013-07-05 08:44:00,
2013-07-05 02:57:00,59.0,50.0,-100.00,WSW,242,5.0,7.0,73,0.00,,,0.32,0.000000,,2013-07-05 08:57:00,
2013-07-05 03:15:00,59.0,50.0,-100.00,WSW,242,5.0,7.0,73,0.00,,,0.32,0.000000,,2013-07-05 09:15:00,
2013-07-05 03:22:00,61.0,51.0,-100.00,WSW,248,7.0,9.0,70,0.00,,,0.32,0.000000,,2013-07-05 09:22:00,
2013-07-05 03:48:00,61.0,51.0,-100.00,WSW,248,7.0,9.0,70,0.00,,,0.32,0.000000,,2013-07-05 09:48:00,
2013-07-05 03:56:00,61.0,51.0,-100.00,WSW,248,7.0,9.0,70,0.00,,,0.32,0.000000,,2013-07-05 09:56:00,
2013-07-05 04:06:00,61.0,51.0,-100.00,WSW,248,7.0,9.0,70,0.00,,,0.32,0.000000,,2013-07-05 10:06:00,
2013-07-05 04:22:00,61.0,51.0,-100.00,WSW,247,5.0,10.0,70,0.00,,,0.32,0.000000,,2013-07-05 10:22:00,
2013-07-05 04:57:00,61.0,51.0,-100.00,WSW,247,5.0,10.0,70,0.00,,,0.32,0.000000,,2013-07-05 10:57:00,
2013-07-05 05:22:00,62.0,52.0,-100.00,South,185,0.0,6.0,70,0.00,,,0.32,0.000000,,2013-07-05 11:22:00,
2013-07-05 05:50:00,62.0,52.0,-100.00,South,185,0.0,6.0,70,0.00,,,0.32,0.000000,,2013-07-05 11:50:00,
2013-07-05 06:00:00,62.0,52.0,-100.00,South,185,0.0,6.0,70,0.00,,,0.32,0.000000,,2013-07-05 12:00:00,
2013-07-05 06:22:00,62.0,52.0,-100.00,West,277,4.0,6.0,71,0.00,,,0.32,9.000000,,2013-07-05 12:22:00,
2013-07-05 06:50:00,62.0,52.0,-100.00,West,277,4.0,6.0,71,0.00,,,0.32,9.000000,,2013-07-05 12:50:00,
2013-07-05 07:00:00,62.0,52.0,-100.00,West,277,4.0,6.0,71,0.00,,,0.32,9.000000,,2013-07-05 13:00:00,
2013-07-05 07:05:00,62.0,52.0,-100.00,West,277,4.0,6.0,71,0.00,,,0.32,9.000000,,2013-07-05 13:05:00,
2013-07-05 07:13:00,62.0,52.0,-100.00,West,277,4.0,6.0,71,0.00,,,0.32,9.000000,,2013-07-05 13:13:00,
2013-07-05 07:22:00,64.0,53.0,-100.00,NW,318,5.0,7.0,68,0.00,,,0.32,55.000000,,2013-07-05 13:22:00,
2013-07-05 07:49:00,64.0,53.0,-100.00,NW,318,5.0,7.0,68,0.00,,,0.32,55.000000,,2013-07-05 13:49:00,
2013-07-05 07:58:00,64.0,53.0,-100.00,NW,318,5.0,7.0,68,0.00,,,0.32,55.000000,,2013-07-05 13:58:00,
2013-07-05 08:07:00,64.0,53.0,-100.00,NW,318,5.0,7.0,68,0.00,,,0.32,55.000000,,2013-07-05 14:07:00,
2013-07-05 08:57:00,65.0,56.0,-100.00,North,0,2.0,9.0,72,0.00,,,0.32,83.000000,,2013-07-05 14:57:00,
2013-07-05 09:05:00,65.0,56.0,-100.00,North,0,2.0,9.0,72,0.00,,,0.32,83.000000,,2013-07-05 15:05:00,
2013-07-05 09:22:00,72.0,53.0,-100.00,NW,314,10.0,18.0,51,0.00,,,0.32,378.000000,,2013-07-05 15:22:00,
2013-07-05 09:43:00,72.0,53.0,-100.00,NW,314,10.0,18.0,51,0.00,,,0.32,378.000000,,2013-07-05 15:43:00,
2013-07-05 09:53:00,72.0,53.0,-100.00,NW,314,10.0,18.0,51,0.00,,,0.32,378.000000,,2013-07-05 15:53:00,
2013-07-05 10:11:00,72.0,53.0,-100.00,NW,314,10.0,18.0,51,0.00,,,0.32,378.000000,,2013-07-05 16:11:00,
2013-07-05 10:22:00,67.0,51.0,-100.00,NW,324,16.0,29.0,57,0.01,,,0.33,599.000000,,2013-07-05 16:22:00,
2013-07-05 10:44:00,67.0,51.0,-100.00,NW,324,16.0,29.0,57,0.01,,,0.33,599.000000,,2013-07-05 16:44:00,
2013-07-05 10:53:00,67.0,51.0,-100.00,NW,324,16.0,29.0,57,0.01,,,0.33,599.000000,,2013-07-05 16:53:00,
2013-07-05 11:02:00,67.0,51.0,-100.00,NW,324,16.0,29.0,57,0.01,,,0.33,599.000000,,2013-07-05 17:02:00,
2013-07-05 11:12:00,67.0,51.0,-100.00,NW,324,16.0,29.0,57,0.01,,,0.33,599.000000,,2013-07-05 17:12:00,
2013-07-05 11:22:00,70.0,52.0,-100.00,NNW,338,8.0,20.0,52,0.00,,,0.33,402.000000,,2013-07-05 17:22:00,
2013-07-05 11:43:00,70.0,52.0,-100.00,NNW,338,8.0,20.0,52,0.00,,,0.33,402.000000,,2013-07-05 17:43:00,
2013-07-05 11:53:00,70.0,52.0,-100.00,NNW,338,8.0,20.0,52,0.00,,,0.33,402.000000,,2013-07-05 17:53:00,
2013-07-05 12:01:00,70.0,52.0,-100.00,NNW,338,8.0,20.0,52,0.00,,,0.33,402.000000,,2013-07-05 18:01:00,
2013-07-05 12:11:00,70.0,52.0,-100.00,NNW,338,8.0,20.0,52,0.00,,,0.33,402.000000,,2013-07-05 18:11:00,
2013-07-05 12:22:00,64.0,53.0,-100.00,North,4,4.0,18.0,67,0.01,,,0.34,333.000000,,2013-07-05 18:22:00,
2013-07-05 12:43:00,64.0,53.0,-100.00,North,4,4.0,18.0,67,0.01,,,0.34,333.000000,,2013-07-05 18:43:00,
2013-07-05 12:53:00,64.0,53.0,-100.00,North,4,4.0,18.0,67,0.01,,,0.34,333.000000,,2013-07-05 18:53:00,
2013-07-05 13:01:00,64.0,53.0,-100.00,North,4,4.0,18.0,67,0.01,,,0.34,333.000000,,2013-07-05 19:01:00,
2013-07-05 13:12:00,64.0,53.0,-100.00,North,4,4.0,18.0,67,0.01,,,0.34,333.000000,,2013-07-05 19:12:00,
2013-07-05 13:22:00,66.0,58.0,-100.00,East,85,4.0,17.0,75,0.04,,,0.38,431.000000,,2013-07-05 19:22:00,
2013-07-05 13:43:00,66.0,58.0,-100.00,East,85,4.0,17.0,75,0.04,,,0.38,431.000000,,2013-07-05 19:43:00,
2013-07-05 13:53:00,66.0,58.0,-100.00,East,85,4.0,17.0,75,0.04,,,0.38,431.000000,,2013-07-05 19:53:00,
2013-07-05 14:01:00,66.0,58.0,-100.00,East,85,4.0,17.0,75,0.04,,,0.38,431.000000,,2013-07-05 20:01:00,
2013-07-05 14:11:00,66.0,58.0,-100.00,East,85,4.0,17.0,75,0.04,,,0.38,431.000000,,2013-07-05 20:11:00,
2013-07-05 14:43:00,67.0,56.0,-100.00,East,96,7.0,11.0,69,0.00,,,0.38,893.000000,,2013-07-05 20:43:00,
2013-07-05 14:53:00,67.0,56.0,-100.00,East,96,7.0,11.0,69,0.00,,,0.38,893.000000,,2013-07-05 20:53:00,
2013-07-05 15:01:00,67.0,56.0,-100.00,East,96,7.0,11.0,69,0.00,,,0.38,893.000000,,2013-07-05 21:01:00,
2013-07-05 15:11:00,67.0,56.0,-100.00,East,96,7.0,11.0,69,0.00,,,0.38,893.000000,,2013-07-05 21:11:00,
2013-07-05 15:21:00,67.0,56.0,-100.00,East,96,7.0,11.0,69,0.00,,,0.38,893.000000,,2013-07-05 21:21:00,
2013-07-05 15:43:00,69.0,57.0,-100.00,SE,124,8.0,13.0,65,-99.99,,,0.38,550.000000,,2013-07-05 21:43:00,
2013-07-05 15:53:00,69.0,57.0,-100.00,SE,124,8.0,13.0,65,-99.99,,,0.38,550.000000,,2013-07-05 21:53:00,
2013-07-05 16:01:00,69.0,57.0,-100.00,SE,124,8.0,13.0,65,-99.99,,,0.38,550.000000,,2013-07-05 22:01:00,
2013-07-05 16:11:00,69.0,57.0,-100.00,SE,124,8.0,13.0,65,-99.99,,,0.38,550.000000,,2013-07-05 22:11:00,
2013-07-05 16:21:00,69.0,57.0,-100.00,SE,124,8.0,13.0,65,-99.99,,,0.38,550.000000,,2013-07-05 22:21:00,
2013-07-05 16:22:00,68.0,54.0,-100.00,SSE,166,7.0,11.0,62,0.00,,,0.38,324.000000,,2013-07-05 22:22:00,
2013-07-05 16:43:00,68.0,54.0,-100.00,SSE,166,7.0,11.0,62,0.00,,,0.38,324.000000,,2013-07-05 22:43:00,
2013-07-05 16:53:00,68.0,54.0,-100.00,SSE,166,7.0,11.0,62,0.00,,,0.38,324.000000,,2013-07-05 22:53:00,
2013-07-05 17:02:00,68.0,54.0,-100.00,SSE,166,7.0,11.0,62,0.00,,,0.38,324.000000,,2013-07-05 23:02:00,
2013-07-05 17:11:00,68.0,54.0,-100.00,SSE,166,7.0,11.0,62,0.00,,,0.38,324.000000,,2013-07-05 23:11:00,
2013-07-05 17:22:00,68.0,59.0,-100.00,SSW,195,10.0,16.0,73,0.07,,,0.45,335.000000,,2013-07-05 23:22:00,
2013-07-05 17:43:00,68.0,59.0,-100.00,SSW,195,10.0,16.0,73,0.07,,,0.45,335.000000,,2013-07-05 23:43:00,
2013-07-05 17:53:00,68.0,59.0,-100.00,SSW,195,10.0,16.0,73,0.07,,,0.45,335.000000,,2013-07-05 23:53:00,
2013-07-05 18:01:00,68.0,59.0,-100.00,SSW,195,10.0,16.0,73,0.07,,,0.45,335.000000,,2013-07-06 00:01:00,
2013-07-05 18:11:00,68.0,59.0,-100.00,SSW,195,10.0,16.0,73,0.07,,,0.45,335.000000,,2013-07-06 00:11:00,
2013-07-05 18:22:00,71.0,57.0,-100.00,SSE,149,2.0,13.0,62,0.00,,,0.45,309.000000,,2013-07-06 00:22:00,
2013-07-05 18:53:00,71.0,57.0,-100.00,SSE,149,2.0,13.0,62,0.00,,,0.45,309.000000,,2013-07-06 00:53:00,
2013-07-05 19:02:00,71.0,57.0,-100.00,SSE,149,2.0,13.0,62,0.00,,,0.45,309.000000,,2013-07-06 01:02:00,
2013-07-05 19:12:00,71.0,57.0,-100.00,SSE,149,2.0,13.0,62,0.00,,,0.45,309.000000,,2013-07-06 01:12:00,
2013-07-05 19:43:00,70.0,61.0,-100.00,SSE,154,2.0,7.0,73,0.00,,,0.45,190.000000,,2013-07-06 01:43:00,
2013-07-05 19:53:00,70.0,61.0,-100.00,SSE,154,2.0,7.0,73,0.00,,,0.45,190.000000,,2013-07-06 01:53:00,
2013-07-05 20:22:00,66.0,58.0,-100.00,NNW,331,8.0,12.0,75,0.00,,,0.13,58.000000,,2013-07-06 02:22:00,
2013-07-05 20:43:00,66.0,58.0,-100.00,NNW,331,8.0,12.0,75,0.00,,,0.13,58.000000,,2013-07-06 02:43:00,
2013-07-05 20:53:00,66.0,58.0,-100.00,NNW,331,8.0,12.0,75,0.00,,,0.13,58.000000,,2013-07-06 02:53:00,
2013-07-05 21:02:00,66.0,58.0,-100.00,NNW,331,8.0,12.0,75,0.00,,,0.13,58.000000,,2013-07-06 03:02:00,
2013-07-05 21:12:00,66.0,58.0,-100.00,NNW,331,8.0,12.0,75,0.00,,,0.13,58.000000,,2013-07-06 03:12:00,
2013-07-05 21:22:00,70.0,48.0,-100.00,NW,321,15.0,23.0,46,0.00,,,0.13,9.000000,,2013-07-06 03:22:00,
2013-07-05 21:43:00,70.0,48.0,-100.00,NW,321,15.0,23.0,46,0.00,,,0.13,9.000000,,2013-07-06 03:43:00,
2013-07-05 21:53:00,70.0,48.0,-100.00,NW,321,15.0,23.0,46,0.00,,,0.13,9.000000,,2013-07-06 03:53:00,
2013-07-05 22:02:00,70.0,48.0,-100.00,NW,321,15.0,23.0,46,0.00,,,0.13,9.000000,,2013-07-06 04:02:00,
2013-07-05 22:12:00,70.0,48.0,-100.00,NW,321,15.0,23.0,46,0.00,,,0.13,9.000000,,2013-07-06 04:12:00,
2013-07-05 22:22:00,66.0,54.0,-100.00,NNW,329,6.0,24.0,66,0.00,,,0.13,0.000000,,2013-07-06 04:22:00,
2013-07-05 22:43:00,66.0,54.0,-100.00,NNW,329,6.0,24.0,66,0.00,,,0.13,0.000000,,2013-07-06 04:43:00,
2013-07-05 22:53:00,66.0,54.0,-100.00,NNW,329,6.0,24.0,66,0.00,,,0.13,0.000000,,2013-07-06 04:53:00,
2013-07-05 23:02:00,66.0,54.0,-100.00,NNW,329,6.0,24.0,66,0.00,,,0.13,0.000000,,2013-07-06 05:02:00,
2013-07-05 23:12:00,66.0,54.0,-100.00,NNW,329,6.0,24.0,66,0.00,,,0.13,0.000000,,2013-07-06 05:12:00,
2013-07-05 23:22:00,64.0,56.0,-100.00,WNW,303,4.0,6.0,74,0.00,,,0.13,0.000000,,2013-07-06 05:22:00,
2013-07-05 23:43:00,64.0,56.0,-100.00,WNW,303,4.0,6.0,74,0.00,,,0.13,0.000000,,2013-07-06 05:43:00,
2013-07-05 23:53:00,64.0,56.0,-100.00,WNW,303,4.0,6.0,74,0.00,,,0.13,0.000000,,2013-07-06 05:53:00,